{"data":{"norad_id":62715,"epoch":"2026-09-22T17:40:20.216640Z","epoch_age_seconds":126581,"freshness":"FRESH","line1":"1 62715U 25009DL  26265.73634510  .00000952  00000+0  93695-4 0  9998","line2":"2 62715  97.7015 342.6799 0001041 158.5077 201.6188 14.94392089 91916","mean_motion":14.94392089,"eccentricity":0.0001041,"inclination_deg":97.7015,"raan_deg":342.6799,"arg_perigee_deg":158.5077,"mean_anomaly_deg":201.6188,"bstar":9.3695e-5,"rev_number":9191,"period_min":96.360253149065,"perigee_km":583.53550388999,"apogee_km":584.98507500565,"semimajor_km":6962.3972894478,"source":"CELESTRAK","updated_at":"2026-09-23T09:00:21.590307Z"}}